This demonstration page uses our WeatherBlox Daily Observations layout. Learn more.

Left ArrowRight Arrow

36.19886, -115.1175

Hourly Observations for January 23, 2022

Temp ( °F °C ) Dew Point ( °F °C ) Humidity (%) Winds ( mph kmh ) Pressure ( in mb ) Visibility ( mi km ) Precip ( " mm )
12:53 am 00:53 Clear 52 11.1 16 -8.9 24 24 NNW 16 26 30.27 1025 10 16 0.00 0.00
1:53 am 01:53 Clear 51 10.6 16 -8.9 25 25 NNW 16 26 30.29 1026 10 16 0.00 0.00
2:53 am 02:53 Clear 49 9.4 16 -8.9 27 27 NNW 16 26 30.29 1026 10 16 0.00 0.00
3:53 am 03:53 Clear 50 10 15 -9.4 25 25 NNW 15 24 30.29 1026 10 16 0.00 0.00
4:53 am 04:53 Clear 49 9.4 15 -9.4 26 26 NNW 17 28 30.29 1026 10 16 0.00 0.00
5:53 am 05:53 Clear 47 8.3 14 -10 26 26 NNW 12 19 30.31 1027 10 16 0.00 0.00
6:53 am 06:53 Sunny 46 7.8 14 -10 27 27 N 7 11 30.34 1027 10 16 0.00 0.00
7:53 am 07:53 Sunny 49 9.4 14 -10 25 25 N 12 19 30.35 1028 10 16 0.00 0.00
8:53 am 08:53 Sunny 52 11.1 15 -9.4 23 23 NNW 15 24 30.34 1027 10 16 0.00 0.00
9:53 am 09:53 Sunny 56 13.3 15 -9.4 20 20 N 10 17 30.35 1028 10 16 0.00 0.00
10:53 am 10:53 Sunny 58 14.4 16 -8.9 19 19 NNE 8 13 30.33 1027 10 16 0.00 0.00
11:53 am 11:53 Sunny 60 15.6 16 -8.9 18 18 NE 5 7 30.29 1026 10 16 0.00 0.00
12:53 pm 12:53 Sunny 62 16.7 14 -10 15 15 NW 5 7 30.25 1025 10 16 0.00 0.00
1:53 pm 13:53 Sunny 63 17.2 16 -8.9 16 16 ENE 7 11 30.23 1024 10 16 0.00 0.00
2:53 pm 14:53 Sunny 63 17.2 15 -9.4 15 15 Calm 30.21 1023 10 16 0.00 0.00
3:53 pm 15:53 Sunny 63 17.2 15 -9.4 15 15 SE 7 11 30.20 1023 10 16 0.00 0.00
4:53 pm 16:53 Sunny 60 15.6 15 -9.4 17 17 SSE 6 9 30.20 1023 10 16 0.00 0.00
5:53 pm 17:53 Clear 60 15.6 14 -10 16 16 NW 6 9 30.22 1023 10 16 0.00 0.00
6:53 pm 18:53 Clear 57 13.9 15 -9.4 19 19 W 5 7 30.22 1023 10 16 0.00 0.00
7:53 pm 19:53 Clear 55 12.8 12 -11.1 18 18 WSW 6 9 30.22 1023 10 16 0.00 0.00
8:53 pm 20:53 Clear 54 12.2 11 -11.7 18 18 NNW 9 15 30.21 1023 10 16 0.00 0.00
9:53 pm 21:53 Clear 53 11.7 12 -11.1 19 19 N 8 13 30.21 1023 10 16 0.00 0.00
10:53 pm 22:53 Clear 53 11.7 12 -11.1 19 19 NNW 10 17 30.19 1022 10 16 0.00 0.00
11:53 pm 23:53 Clear 50 10 13 -10.6 22 22 NW 6 9 30.18 1022 10 16 0.00 0.00

Powered by AerisWeather